EW0976 Weather Reports


time (UTC)temp
C
wind
direction
speed
KPH
gust
KPH
rain 1hr
cm
rain 24hr
cm
rain mn
cm
humidity
%
barometer
mb
20260902195111 35 229 3.2 9.7 0.00 0.00 0.00 51 989.0
20260902194611 35 258 3.2 9.7 0.00 0.00 0.00 51 989.1
20260902194111 35 230 4.8 9.7 0.00 0.00 0.00 51 989.1
20260902193112 35 223 4.8 8.0 0.00 0.00 0.00 53 989.2
20260902192611 35 204 1.6 8.0 0.00 0.00 0.00 52 989.3
20260902191112 35 218 3.2 8.0 0.00 0.00 0.00 52 989.5
20260902190611 35 235 4.8 8.0 0.00 0.00 0.00 50 989.5
20260902190111 35 226 3.2 8.0 0.00 0.00 0.00 51 989.5
20260902185611 35 228 3.2 9.7 0.00 0.00 0.00 51 989.5
20260902185112 35 230 4.8 9.7 0.00 0.00 0.00 51 989.5
20260902184612 35 223 3.2 8.0 0.00 0.00 0.00 52 989.5
20260902184111 35 215 4.8 11.3 0.00 0.00 0.00 53 989.6
20260902183612 35 236 4.8 11.3 0.00 0.00 0.00 52 989.6
20260902183111 34 193 3.2 9.7 0.00 0.00 0.00 53 989.6
20260902182611 34 235 4.8 9.7 0.00 0.00 0.00 52 989.6
20260902181611 33 206 3.2 14.5 0.00 0.00 0.00 56 989.6
20260902181111 33 249 4.8 12.9 0.00 0.00 0.00 54 989.7
20260902180611 33 242 3.2 12.9 0.00 0.00 0.00 54 989.8
20260902180111 33 228 1.6 11.3 0.00 0.00 0.00 54 989.9
20260902175112 34 226 4.8 12.9 0.00 0.00 0.00 53 989.9
20260902174611 34 260 3.2 8.0 0.00 0.00 0.00 55 989.9
20260902174111 34 220 3.2 11.3 0.00 0.00 0.00 53 989.9
20260902173611 33 224 3.2 9.7 0.00 0.00 0.00 53 990.0
20260902173112 33 251 4.8 8.0 0.00 0.00 0.00 53 990.1
20260902172611 33 223 3.2 4.8 0.00 0.00 0.00 55 990.1
20260902172111 33 236 3.2 9.7 0.00 0.00 0.00 55 990.3
20260902171611 33 209 3.2 4.8 0.00 0.00 0.00 54 990.2
20260902171111 33 234 1.6 4.8 0.00 0.00 0.00 54 990.2
20260902170610 33 290 4.8 11.3 0.00 0.00 0.00 56 990.3
20260902170112 33 236 4.8 9.7 0.00 0.00 0.00 55 990.3
20260902165611 33 230 3.2 9.7 0.00 0.00 0.00 55 990.3
20260902164611 33 271 3.2 9.7 0.00 0.00 0.00 56 990.5
20260902164111 33 223 3.2 11.3 0.00 0.00 0.00 56 990.4
20260902163611 33 231 3.2 8.0 0.00 0.00 0.00 56 990.4
20260902163111 33 232 4.8 4.8 0.00 0.00 0.00 56 990.4
20260902162611 33 227 3.2 4.8 0.00 0.00 0.00 57 990.4
20260902161611 32 282 1.6 8.0 0.00 0.00 0.00 57 990.4
20260902161111 32 246 3.2 8.0 0.00 0.00 0.00 59 990.4
20260902160111 32 241 4.8 11.3 0.00 0.00 0.00 58 990.5
20260902155611 32 289 4.8 11.3 0.00 0.00 0.00 59 990.5
20260902155111 32 232 1.6 4.8 0.00 0.00 0.00 60 990.5
20260902154611 32 246 1.6 4.8 0.00 0.00 0.00 61 990.5
20260902153111 32 234 3.2 9.7 0.00 0.00 0.00 61 990.6
20260902152611 32 228 3.2 8.0 0.00 0.00 0.00 60 990.7
20260902152111 32 212 3.2 4.8 0.00 0.00 0.00 62 990.7
20260902151111 32 246 1.6 3.2 0.00 0.00 0.00 64 990.7
20260902150611 31 233 1.6 4.8 0.00 0.00 0.00 63 990.7
20260902150111 32 241 0.0 3.2 0.00 0.00 0.00 66 990.7
20260902145611 31 235 0.0 3.2 0.00 0.00 0.00 68 990.7
20260902145111 31 173 1.6 3.2 0.00 0.00 0.00 66 990.7
20260902144111 31 226 1.6 3.2 0.00 0.00 0.00 67 990.8
20260902143110 30 211 0.0 3.2 0.00 0.00 0.00 71 990.7
20260902142611 30 224 0.0 1.6 0.00 0.00 0.00 73 990.7
20260902142111 29 213 0.0 3.2 0.00 0.00 0.00 74 990.7
20260902141611 29 171 1.6 4.8 0.00 0.00 0.00 74 990.7
20260902141111 28 220 0.0 3.2 0.00 0.00 0.00 75 990.6
20260902140611 28 202 0.0 3.2 0.00 0.00 0.00 77 990.7
20260902140111 27 179 0.0 3.2 0.00 0.00 0.00 78 990.7
20260902135611 27 147 1.6 3.2 0.00 0.00 0.00 80 990.8
20260902135110 26 210 0.0 3.2 0.00 0.00 0.00 83 990.8
20260902134610 26 134 1.6 3.2 0.00 0.00 0.00 84 990.8
20260902134111 25 135 0.0 3.2 0.00 0.00 0.00 86 990.9
20260902133610 25 163 1.6 3.2 0.00 0.00 0.00 87 990.9
20260902133110 25 132 1.6 3.2 0.00 0.00 0.00 88 990.9
20260902132611 25 123 1.6 3.2 0.00 0.00 0.00 88 990.9
20260902132111 24 135 1.6 3.2 0.00 0.00 0.00 89 990.9
20260902131611 24 121 1.6 4.8 0.00 0.00 0.00 90 990.8
20260902131110 24 137 1.6 3.2 0.00 0.00 0.00 91 990.8
20260902130111 23 129 0.0 3.2 0.00 0.00 0.00 93 990.8
20260902125610 23 155 0.0 1.6 0.00 0.00 0.00 94 990.8
20260902125110 22 128 0.0 1.6 0.00 0.00 0.00 95 990.8
20260902124110 22 121 0.0 3.2 0.00 0.00 0.00 97 990.7
20260902123610 22 118 0.0 3.2 0.00 0.00 0.00 97 990.7
20260902123110 22 142 0.0 0.0 0.00 0.00 0.00 97 990.7
20260902122611 22 142 0.0 0.0 0.00 0.00 0.00 97 990.7
20260902122111 22 142 0.0 0.0 0.00 0.00 0.00 97 990.6
20260902121611 22 142 0.0 0.0 0.00 0.00 0.00 97 990.6
20260902121111 22 142 0.0 0.0 0.00 0.00 0.00 97 990.6
20260902120111 21 112 0.0 0.0 0.00 0.00 0.00 97 990.5
20260902115610 21 112 0.0 0.0 0.00 0.00 0.00 97 990.5
20260902115111 21 112 0.0 0.0 0.00 0.00 0.00 97 990.5
20260902114611 21 112 0.0 0.0 0.00 0.00 0.00 97 990.4
20260902114110 21 112 0.0 0.0 0.00 0.00 0.00 97 990.3
20260902113111 21 112 0.0 0.0 0.00 0.00 0.00 97 990.2
20260902112611 21 112 0.0 0.0 0.00 0.00 0.00 97 990.2
20260902112111 21 112 0.0 0.0 0.00 0.00 0.00 97 990.2
20260902111111 21 112 0.0 0.0 0.00 0.00 0.00 97 990.0
20260902110610 22 112 0.0 0.0 0.00 0.00 0.00 97 990.0
20260902105610 21 153 0.0 0.0 0.00 0.00 0.00 97 990.0
20260902104611 21 153 0.0 0.0 0.00 0.00 0.00 97 990.0
20260902104110 21 153 0.0 0.0 0.00 0.00 0.00 96 990.1
20260902103610 21 153 0.0 0.0 0.00 0.00 0.00 96 990.1
20260902103111 21 153 0.0 0.0 0.00 0.00 0.00 96 990.1
20260902102611 21 153 0.0 0.0 0.00 0.00 0.00 96 990.0
20260902102110 21 153 0.0 0.0 0.00 0.00 0.00 96 990.0
20260902101610 21 153 0.0 0.0 0.00 0.00 0.00 96 990.0
20260902101111 21 153 0.0 0.0 0.00 0.00 0.00 96 990.0
20260902100611 22 153 0.0 0.0 0.00 0.00 0.00 96 990.0
20260902095610 22 153 0.0 0.0 0.00 0.00 0.00 96 990.0
20260902095110 22 153 0.0 0.0 0.00 0.00 0.00 96 989.9
20260902094110 22 128 0.0 1.6 0.00 0.00 0.00 97 989.9
20260902093110 22 136 0.0 0.0 0.00 0.00 0.00 96 989.9
20260902092110 22 136 0.0 0.0 0.00 0.00 0.00 96 989.9
20260902091610 22 136 0.0 0.0 0.00 0.00 0.00 96 989.8
20260902091111 22 136 0.0 0.0 0.00 0.00 0.00 96 989.8
20260902090611 22 136 0.0 0.0 0.00 0.00 0.00 96 989.8
20260902090110 22 136 0.0 0.0 0.00 0.00 0.00 96 989.7
20260902085610 22 136 0.0 0.0 0.00 0.00 0.00 96 989.7
20260902085110 22 136 0.0 0.0 0.00 0.00 0.00 95 989.7
20260902084611 22 136 0.0 0.0 0.00 0.00 0.00 95 989.6
20260902084110 22 136 0.0 0.0 0.00 0.00 0.00 95 989.6
20260902083610 22 136 0.0 0.0 0.00 0.00 0.00 96 989.5
20260902082611 22 136 0.0 0.0 0.00 0.00 0.00 96 989.4
20260902082110 22 136 0.0 0.0 0.00 0.00 0.00 96 989.3
20260902081610 22 136 0.0 0.0 0.00 0.00 0.00 95 989.4
20260902081110 22 139 0.0 1.6 0.00 0.00 0.00 95 989.4
20260902080610 22 16 0.0 0.0 0.00 0.00 0.00 95 989.3
20260902080110 22 357 0.0 0.0 0.00 0.00 0.00 95 989.2
20260902075610 22 357 0.0 0.0 0.00 0.00 0.00 95 989.2
20260902075110 22 357 0.0 0.0 0.00 0.00 0.00 95 989.2
20260902074610 22 357 0.0 0.0 0.00 0.00 0.00 95 989.2
20260902074110 22 357 0.0 0.0 0.00 0.00 0.00 95 989.2
20260902073610 22 357 0.0 0.0 0.00 0.00 0.00 95 989.2
20260902073111 22 357 0.0 0.0 0.00 0.00 0.00 95 989.2
20260902072610 22 357 0.0 0.0 0.00 0.00 0.00 95 989.2
20260902072111 22 357 0.0 0.0 0.00 0.00 0.00 94 989.3
20260902071110 22 357 0.0 0.0 0.00 0.00 0.00 94 989.3
20260902070610 22 357 0.0 0.0 0.00 0.00 0.00 94 989.3
20260902070110 22 357 0.0 0.0 0.00 0.00 0.00 94 989.2
20260902065611 22 357 0.0 0.0 0.00 0.00 0.00 94 989.3
20260902065110 22 357 0.0 0.0 0.00 0.00 0.00 94 989.3
20260902064110 22 357 0.0 0.0 0.00 0.00 0.00 93 989.4
20260902063610 22 357 0.0 0.0 0.00 0.00 0.00 93 989.4
20260902063110 23 357 0.0 0.0 0.00 0.00 0.00 94 989.4
20260902062610 23 357 0.0 0.0 0.00 0.00 0.00 93 989.3
20260902062110 23 357 0.0 0.0 0.00 0.00 0.00 93 989.3
20260902061610 23 357 0.0 0.0 0.00 0.00 0.00 92 989.4
20260902061110 23 357 0.0 0.0 0.00 0.00 0.00 92 989.4
20260902060110 23 357 0.0 0.0 0.00 0.00 0.00 91 989.3
20260902055610 23 357 0.0 0.0 0.00 0.00 0.00 91 989.4
20260902055110 23 357 0.0 0.0 0.00 0.00 0.00 90 989.4
20260902054610 23 357 0.0 0.0 0.00 0.00 0.00 90 989.4
20260902053610 23 357 0.0 0.0 0.00 0.00 0.00 90 989.4
20260902052110 23 357 0.0 0.0 0.00 0.00 0.00 90 989.4
20260902051610 23 357 0.0 0.0 0.00 0.00 0.00 89 989.4
20260902051110 23 332 0.0 0.0 0.00 0.00 0.00 89 989.4
20260902050610 23 332 0.0 0.0 0.00 0.00 0.00 89 989.4
20260902050110 23 332 0.0 0.0 0.00 0.00 0.00 88 989.4
20260902045610 24 332 0.0 0.0 0.00 0.00 0.00 88 989.4
20260902044110 24 332 0.0 0.0 0.00 0.00 0.00 87 989.4
20260902043610 24 332 0.0 0.0 0.00 0.00 0.00 86 989.4
20260902043109 25 332 0.0 0.0 0.00 0.00 0.00 85 989.5
20260902042610 25 332 0.0 0.0 0.00 0.00 0.00 85 989.4
20260902042109 25 339 0.0 0.0 0.00 0.00 0.00 84 989.4
20260902041609 25 339 0.0 0.0 0.00 0.00 0.00 84 989.4
20260902041110 25 339 0.0 0.0 0.00 0.00 0.00 84 989.4
20260902040610 25 339 0.0 0.0 0.00 0.00 0.00 84 989.4
20260902040109 25 339 0.0 0.0 0.00 0.00 0.00 84 989.5
20260902034610 25 73 0.0 0.0 0.00 0.00 0.00 83 989.4
20260902034109 25 73 0.0 0.0 0.00 0.00 0.00 83 989.4
20260902033609 25 73 0.0 0.0 0.00 0.00 0.00 83 989.4
20260902033110 25 73 0.0 0.0 0.00 0.00 0.00 83 989.4
20260902032609 25 73 0.0 0.0 0.00 0.00 0.00 83 989.4
20260902032109 25 73 0.0 0.0 0.00 0.00 0.00 83 989.4
20260902031610 26 73 0.0 0.0 0.00 0.00 0.00 82 989.4
20260902031110 26 73 0.0 0.0 0.00 0.00 0.00 81 989.4
20260902030610 26 73 0.0 0.0 0.00 0.00 0.00 80 989.4
20260902030110 26 73 0.0 1.6 0.00 0.00 0.00 80 989.4
20260902025610 26 26 0.0 1.6 0.00 0.00 0.00 80 989.4
20260902025110 26 300 0.0 0.0 0.00 0.00 0.00 80 989.4
20260902024610 26 300 0.0 0.0 0.00 0.00 0.00 79 989.4
20260902023609 26 300 0.0 0.0 0.00 0.00 0.00 79 989.4
20260902023110 26 300 0.0 0.0 0.00 0.00 0.00 79 989.4
20260902022609 26 300 0.0 0.0 0.00 0.00 0.00 79 989.4
20260902021609 26 300 0.0 0.0 0.00 0.00 0.00 78 989.4
20260902021110 26 300 0.0 1.6 0.00 0.00 0.00 79 989.4
20260902020610 26 166 0.0 0.0 0.00 0.00 0.00 79 989.4
20260902020110 26 166 0.0 0.0 0.00 0.00 0.00 78 989.4
20260902015110 26 166 0.0 0.0 0.00 0.00 0.00 78 989.3
20260902014610 26 166 0.0 0.0 0.00 0.00 0.00 78 989.3
20260902014109 27 166 0.0 0.0 0.00 0.00 0.00 77 989.3
20260902013609 27 166 0.0 0.0 0.00 0.00 0.00 77 989.3
20260902013110 27 166 0.0 0.0 0.00 0.00 0.00 74 989.3
20260902012110 27 166 0.0 0.0 0.00 0.00 0.00 74 989.1
20260902011610 27 166 0.0 0.0 0.00 0.00 0.00 73 989.0
20260902011110 28 166 0.0 0.0 0.00 0.00 0.00 72 989.0
20260902010610 28 166 0.0 0.0 0.00 0.00 0.00 72 988.9
20260902010109 28 166 0.0 0.0 0.00 0.00 0.00 71 988.9
20260902005610 28 166 0.0 0.0 0.00 0.00 0.00 71 988.9
20260902003610 29 154 0.0 3.2 0.00 0.00 0.00 68 988.8
20260902003110 29 166 1.6 3.2 0.00 0.00 0.00 68 988.8
20260902002610 29 162 0.0 1.6 0.00 0.00 0.00 67 988.8
20260902002110 29 214 0.0 0.0 0.00 0.00 0.00 67 988.9
20260902001610 30 214 0.0 0.0 0.00 0.00 0.00 67 988.9
20260902000609 30 214 0.0 0.0 0.00 0.00 0.00 66 989.0
20260902000109 30 214 0.0 0.0 0.00 0.00 0.00 65 989.0
20260901235609 31 214 0.0 0.0 0.00 0.00 0.00 64 989.0
20260901235109 31 214 0.0 0.0 0.00 0.00 0.00 62 989.0
20260901234609 31 214 0.0 0.0 0.00 0.00 0.00 62 989.0
20260901233610 32 214 0.0 0.0 0.00 0.00 0.00 60 989.1
20260901232609 33 214 0.0 1.6 0.00 0.00 0.00 57 989.2
20260901232109 33 208 0.0 0.0 0.00 0.00 0.00 56 989.2
20260901231609 34 208 0.0 0.0 0.00 0.00 0.00 55 989.2
20260901231109 35 208 0.0 0.0 0.00 0.00 0.00 53 989.2
20260901230610 35 208 0.0 0.0 0.00 0.00 0.00 51 989.2
20260901225610 35 233 0.0 0.0 0.00 0.00 0.00 50 989.2
20260901225109 35 233 0.0 0.0 0.00 0.00 0.00 50 989.1
20260901224609 35 235 0.0 4.8 0.00 0.00 0.00 50 989.1
20260901224109 35 251 0.0 4.8 0.00 0.00 0.00 50 989.1
20260901223609 34 225 1.6 3.2 0.00 0.00 0.00 50 989.1
20260901223109 34 227 1.6 4.8 0.00 0.00 0.00 50 989.0
20260901222610 34 234 3.2 4.8 0.00 0.00 0.00 51 989.0
20260901222109 34 242 1.6 8.0 0.00 0.00 0.00 50 989.0
20260901221609 34 230 3.2 8.0 0.00 0.00 0.00 50 989.1
20260901221109 34 242 3.2 9.7 0.00 0.00 0.00 49 989.1
20260901220609 35 244 4.8 11.3 0.00 0.00 0.00 49 989.0
20260901220109 35 277 1.6 3.2 0.00 0.00 0.00 50 989.0
20260901215610 35 216 1.6 8.0 0.00 0.00 0.00 50 988.9
20260901215109 35 232 1.6 12.9 0.00 0.00 0.00 49 988.9
20260901214609 35 245 3.2 12.9 0.00 0.00 0.00 49 988.9
20260901214109 35 213 1.6 4.8 0.00 0.00 0.00 49 988.9
20260901213609 35 235 1.6 8.0 0.00 0.00 0.00 51 988.9
20260901213109 35 230 1.6 4.8 0.00 0.00 0.00 51 988.9
20260901212610 35 191 3.2 4.8 0.00 0.00 0.00 50 989.0
20260901212110 34 229 3.2 8.0 0.00 0.00 0.00 49 989.0
20260901211609 34 226 3.2 11.3 0.00 0.00 0.00 49 988.9
20260901211110 34 255 3.2 14.5 0.00 0.00 0.00 50 988.9
20260901210610 34 207 1.6 4.8 0.00 0.00 0.00 50 988.9
20260901210109 33 247 1.6 3.2 0.00 0.00 0.00 52 988.9
20260901204609 33 223 3.2 11.3 0.00 0.00 0.00 52 989.2
20260901204109 33 244 1.6 4.8 0.00 0.00 0.00 54 989.2
20260901203609 34 216 3.2 8.0 0.00 0.00 0.00 51 989.2
20260901202109 34 221 3.2 11.3 0.00 0.00 0.00 51 989.2
20260901201609 34 217 3.2 9.7 0.00 0.00 0.00 51 989.2
20260901201109 34 209 3.2 4.8 0.00 0.00 0.00 50 989.2
20260901200609 34 203 6.4 11.3 0.00 0.00 0.00 52 989.2
20260901200110 34 196 4.8 12.9 0.00 0.00 0.00 50 989.2
20260901195609 34 229 3.2 8.0 0.00 0.00 0.00 52 989.2